• In Moldova, Republic
  • List of Countries
  • For 7 days
  • Water Temperature
  • Satellite Maps
  • Weather Map
  • Weather Widgets
  • user-avatar
    Login

    Hourly Weather Benguela

    Today, 20 January, Friday

    Time Temperature Precipitation Wind Pressure Humidity
    00:00 +28°C° 0 mm 1 mps 759 mmHg 81%
    01:00 +26°C° 0 mm 0 mps 759 mmHg 81%
    02:00 +26°C° 0 mm 0 mps 759 mmHg 81%
    03:00 +26°C° 0 mm 0 mps 759 mmHg 81%
    04:00 +26°C° 0 mm 0 mps 758 mmHg 80%
    05:00 +26°C° 0 mm 0 mps 758 mmHg 78%
    06:00 +28°C° 0 mm 1 mps 758 mmHg 76%
    07:00 +29°C° 0 mm 1 mps 758 mmHg 75%
    08:00 +29°C° 0.1 mm 1 mps 759 mmHg 68%
    09:00 +30°C° 0.1 mm 2 mps 759 mmHg 62%
    10:00 +31°C° 0.1 mm 2 mps 759 mmHg 56%
    11:00 +30°C° 0.2 mm 2 mps 759 mmHg 58%
    12:00 +30°C° 0.2 mm 3 mps 759 mmHg 60%
    13:00 +29°C° 0.2 mm 3 mps 758 mmHg 63%
    14:00 +29°C° 0.3 mm 3 mps 758 mmHg 65%
    15:00 +29°C° 0.3 mm 4 mps 757 mmHg 67%
    16:00 +28°C° 0.3 mm 4 mps 757 mmHg 69%
    17:00 +28°C° 0.3 mm 4 mps 757 mmHg 71%
    18:00 +27°C° 0.3 mm 4 mps 757 mmHg 73%
    19:00 +27°C° 0.3 mm 5 mps 757 mmHg 75%
    20:00 +27°C° 0.1 mm 4 mps 758 mmHg 75%
    21:00 +27°C° 0.1 mm 4 mps 758 mmHg 76%
    22:00 +27°C° 0.1 mm 4 mps 758 mmHg 76%
    23:00 +27°C° 0 mm 3 mps 758 mmHg 77%

    Tomorrow, 21 January, Saturday

    Time Temperature Precipitation Wind Pressure Humidity
    00:00 +27°C° 0 mm 3 mps 758 mmHg 77%
    01:00 +27°C° 0 mm 3 mps 757 mmHg 77%
    02:00 +27°C° 0 mm 3 mps 757 mmHg 77%
    03:00 +27°C° 0 mm 3 mps 757 mmHg 76%
    04:00 +27°C° 0 mm 3 mps 757 mmHg 76%
    05:00 +27°C° 0 mm 3 mps 757 mmHg 74%
    06:00 +28°C° 0 mm 3 mps 757 mmHg 73%
    07:00 +28°C° 0 mm 2 mps 758 mmHg 71%
    08:00 +30°C° 0 mm 2 mps 758 mmHg 64%
    09:00 +32°C° 0 mm 2 mps 758 mmHg 57%
    10:00 +35°C° 0 mm 3 mps 758 mmHg 50%
    11:00 +36°C° 0 mm 4 mps 758 mmHg 48%
    12:00 +37°C° 0 mm 5 mps 757 mmHg 45%
    13:00 +39°C° 0 mm 6 mps 757 mmHg 42%
    14:00 +38°C° 0 mm 6 mps 756 mmHg 44%
    15:00 +38°C° 0 mm 6 mps 756 mmHg 46%
    16:00 +36°C° 0 mm 6 mps 756 mmHg 47%
    17:00 +34°C° 0 mm 5 mps 756 mmHg 54%
    18:00 +32°C° 0 mm 5 mps 757 mmHg 61%
    19:00 +29°C° 0 mm 4 mps 757 mmHg 67%
    20:00 +29°C° 0 mm 4 mps 758 mmHg 71%
    21:00 +28°C° 0 mm 3 mps 758 mmHg 74%
    22:00 +28°C° 0 mm 3 mps 759 mmHg 77%
    23:00 +27°C° 0 mm 3 mps 758 mmHg 79%

    Day after tomorrow, 22 January, Sunday

    Time Temperature Precipitation Wind Pressure Humidity
    00:00 +27°C° 0 mm 3 mps 758 mmHg 80%
    01:00 +27°C° 0 mm 2 mps 758 mmHg 81%
    02:00 +27°C° 0 mm 2 mps 758 mmHg 82%
    03:00 +26°C° 0 mm 2 mps 757 mmHg 83%
    04:00 +26°C° 0 mm 2 mps 757 mmHg 84%
    05:00 +27°C° 0 mm 2 mps 757 mmHg 81%
    06:00 +27°C° 0 mm 2 mps 758 mmHg 78%
    07:00 +28°C° 0 mm 1 mps 758 mmHg 75%
    08:00 +30°C° 0 mm 2 mps 758 mmHg 65%
    09:00 +32°C° 0 mm 2 mps 758 mmHg 54%
    10:00 +35°C° 0 mm 2 mps 759 mmHg 44%
    11:00 +36°C° 0 mm 3 mps 758 mmHg 44%
    12:00 +36°C° 0 mm 4 mps 757 mmHg 43%
    13:00 +37°C° 0 mm 5 mps 757 mmHg 42%
    14:00 +37°C° 0 mm 5 mps 756 mmHg 46%
    15:00 +36°C° 0 mm 5 mps 756 mmHg 49%
    16:00 +35°C° 0 mm 5 mps 755 mmHg 52%
    17:00 +34°C° 0 mm 4 mps 756 mmHg 59%
    18:00 +32°C° 0 mm 4 mps 756 mmHg 65%
    19:00 +29°C° 0 mm 3 mps 757 mmHg 71%
    20:00 +29°C° 0 mm 3 mps 758 mmHg 73%
    21:00 +29°C° 0 mm 3 mps 758 mmHg 75%
    22:00 +28°C° 0 mm 3 mps 759 mmHg 77%
    23:00 +28°C° 0.1 mm 2 mps 758 mmHg 78%

    23 January, Monday

    Time Temperature Precipitation Wind Pressure Humidity
    00:00 +28°C° 0.1 mm 2 mps 758 mmHg 79%
    01:00 +28°C° 0.1 mm 2 mps 758 mmHg 79%
    02:00 +27°C° 0.3 mm 2 mps 758 mmHg 81%
    03:00 +27°C° 0.3 mm 1 mps 757 mmHg 83%
    04:00 +27°C° 0.3 mm 1 mps 757 mmHg 85%
    05:00 +27°C° 0.2 mm 1 mps 758 mmHg 84%
    06:00 +27°C° 0.2 mm 1 mps 758 mmHg 83%
    07:00 +27°C° 0.2 mm 1 mps 759 mmHg 81%
    08:00 +29°C° 0.2 mm 1 mps 759 mmHg 71%
    09:00 +31°C° 0.2 mm 2 mps 759 mmHg 61%
    10:00 +34°C° 0.2 mm 2 mps 759 mmHg 51%
    11:00 +35°C° 0 mm 3 mps 758 mmHg 49%
    12:00 +36°C° 0 mm 4 mps 758 mmHg 47%
    13:00 +37°C° 0 mm 5 mps 757 mmHg 45%
    14:00 +36°C° 0 mm 5 mps 757 mmHg 50%
    15:00 +34°C° 0 mm 6 mps 756 mmHg 56%
    16:00 +33°C° 0 mm 6 mps 756 mmHg 62%
    17:00 +32°C° 0.1 mm 5 mps 757 mmHg 69%
    18:00 +30°C° 0.1 mm 4 mps 758 mmHg 76%
    19:00 +28°C° 0.1 mm 4 mps 759 mmHg 83%
    20:00 +28°C° 0.1 mm 3 mps 759 mmHg 84%
    21:00 +28°C° 0.1 mm 3 mps 760 mmHg 86%
    22:00 +28°C° 0.1 mm 2 mps 760 mmHg 87%
    23:00 +28°C° 0.1 mm 2 mps 760 mmHg 87%

    24 January, Tuesday

    Time Temperature Precipitation Wind Pressure Humidity
    00:00 +27°C° 0.1 mm 2 mps 759 mmHg 87%
    01:00 +27°C° 0.1 mm 2 mps 759 mmHg 87%
    02:00 +27°C° 0.1 mm 1 mps 759 mmHg 87%
    03:00 +27°C° 0.1 mm 1 mps 758 mmHg 86%
    04:00 +27°C° 0.1 mm 1 mps 758 mmHg 86%
    05:00 +27°C° 0.1 mm 1 mps 759 mmHg 84%
    06:00 +27°C° 0.1 mm 1 mps 759 mmHg 82%
    07:00 +28°C° 0.1 mm 1 mps 760 mmHg 79%
    08:00 +29°C° 0 mm 1 mps 760 mmHg 73%
    09:00 +30°C° 0 mm 2 mps 760 mmHg 67%
    10:00 +31°C° 0 mm 2 mps 760 mmHg 61%
    11:00 +33°C° 0 mm 3 mps 760 mmHg 58%
    12:00 +34°C° 0 mm 3 mps 759 mmHg 54%
    13:00 +34°C° 0 mm 4 mps 759 mmHg 50%
    14:00 +34°C° 0 mm 4 mps 759 mmHg 52%
    15:00 +34°C° 0 mm 4 mps 758 mmHg 55%
    16:00 +33°C° 0 mm 4 mps 758 mmHg 57%
    17:00 +31°C° 0 mm 3 mps 758 mmHg 62%
    18:00 +30°C° 0 mm 3 mps 759 mmHg 67%
    19:00 +29°C° 0 mm 2 mps 759 mmHg 72%
    20:00 +29°C° 0 mm 2 mps 759 mmHg 74%
    21:00 +28°C° 0 mm 2 mps 759 mmHg 76%
    22:00 +28°C° 0 mm 2 mps 760 mmHg 79%
    23:00 +28°C° 0 mm 2 mps 759 mmHg 79%

    25 January, Wednesday

    Time Temperature Precipitation Wind Pressure Humidity
    00:00 +27°C° 0 mm 2 mps 759 mmHg 79%
    01:00 +27°C° 0 mm 2 mps 759 mmHg 79%
    02:00 +27°C° 0 mm 2 mps 759 mmHg 79%
    03:00 +27°C° 0 mm 2 mps 758 mmHg 79%
    04:00 +27°C° 0 mm 1 mps 758 mmHg 79%
    05:00 +27°C° 0 mm 1 mps 759 mmHg 76%
    06:00 +28°C° 0 mm 1 mps 759 mmHg 73%
    07:00 +28°C° 0 mm 1 mps 759 mmHg 70%
    08:00 +30°C° 0 mm 1 mps 759 mmHg 61%
    09:00 +32°C° 0 mm 1 mps 759 mmHg 53%
    10:00 +35°C° 0 mm 2 mps 759 mmHg 44%
    11:00 +36°C° 0 mm 3 mps 759 mmHg 42%
    12:00 +37°C° 0 mm 4 mps 758 mmHg 39%
    13:00 +39°C° 0 mm 5 mps 758 mmHg 36%
    14:00 +39°C° 0 mm 5 mps 757 mmHg 40%
    15:00 +37°C° 0 mm 5 mps 757 mmHg 44%
    16:00 +36°C° 0 mm 5 mps 757 mmHg 48%
    17:00 +34°C° 0 mm 5 mps 757 mmHg 55%
    18:00 +32°C° 0 mm 4 mps 758 mmHg 62%
    19:00 +30°C° 0 mm 3 mps 758 mmHg 69%
    20:00 +29°C° 0 mm 3 mps 759 mmHg 73%
    21:00 +28°C° 0 mm 2 mps 759 mmHg 76%
    22:00 +28°C° 0 mm 2 mps 760 mmHg 80%
    23:00 +28°C° 0 mm 2 mps 760 mmHg 81%
    Show more